CW5049 Weather Reports


time (UTC)temp
C
wind
direction
speed
KPH
gust
KPH
rain 1hr
cm
rain 24hr
cm
rain mn
cm
humidity
%
barometer
mb
20260505153054 11 208 1.6 6.4 0.00 0.00 0.00 87 1015.6
20260505151544 11 109 3.2 9.7 0.00 0.00 0.00 88 1015.6
20260505140110 11 186 4.8 12.9 0.00 0.00 0.00 88 1014.9
20260505124547 10 76 0.0 8.0 0.00 0.00 0.00 91 1014.4
20260505123051 10 172 3.2 8.0 0.00 0.00 0.00 91 1014.3
20260505121544 10 121 3.2 8.0 0.00 0.00 0.00 91 1014.3
20260505120053 10 0 3.2 8.0 0.00 0.00 0.00 90 1014.1
20260505114557 10 158 3.2 11.3 0.00 0.00 0.00 90 1014.0
20260505113057 10 158 3.2 6.4 0.00 0.00 0.00 89 1014.1
20260505111547 10 163 3.2 9.7 0.00 0.00 0.00 89 1014.0
20260505101550 11 150 4.8 11.3 0.00 0.00 0.00 89 1013.7
20260505100048 11 153 3.2 11.3 0.00 0.00 0.00 89 1013.6
20260505094548 11 178 4.8 11.3 0.00 0.00 0.00 89 1013.7
20260505093056 11 219 1.6 4.8 0.00 0.00 0.00 89 1013.5
20260505091555 11 256 0.0 3.2 0.00 0.00 0.00 88 1013.5
20260505090042 11 0 0.0 1.6 0.00 0.00 0.00 89 1013.3
20260505084549 11 0 0.0 3.2 0.00 0.00 0.00 88 1013.3
20260505083054 11 247 0.0 3.2 0.00 0.00 0.00 87 1013.3
20260505081548 11 247 0.0 3.2 0.00 0.00 0.00 87 1013.2
20260505080047 11 247 1.6 3.2 0.00 0.00 0.00 87 1013.1
20260505074543 11 266 1.6 3.2 0.00 0.00 0.00 86 1013.0
20260505073054 11 334 1.6 4.8 0.00 0.00 0.00 84 1012.9
20260505071558 12 303 0.0 3.2 0.00 0.00 0.00 84 1012.7
20260505070056 12 274 1.6 9.7 0.00 0.00 0.00 84 1012.5
20260505064550 12 207 4.8 11.3 0.00 0.00 0.00 83 1012.2
20260505063045 12 253 4.8 9.7 0.00 0.00 0.00 82 1012.1
20260505061546 13 240 6.4 12.9 0.00 0.00 0.00 80 1012.0
20260505060049 13 226 4.8 11.3 0.00 0.00 0.00 78 1011.9
20260505054543 15 197 3.2 4.8 0.00 0.00 0.00 75 1011.9
20260505053042 15 186 1.6 6.4 0.00 0.00 0.00 74 1011.8
20260505051558 15 201 1.6 6.4 0.00 0.00 0.00 72 1011.6
20260505041540 17 208 1.6 9.7 0.00 0.00 0.00 68 1011.1
20260505040048 17 247 3.2 11.3 0.00 0.00 0.00 66 1010.8
20260505034544 18 211 8.0 20.9 0.00 0.00 0.00 64 1010.5
20260505033041 19 213 4.8 14.5 0.00 0.00 0.00 62 1010.5
20260505031549 20 155 4.8 11.3 0.00 0.00 0.00 61 1010.2
20260505030047 21 210 3.2 12.9 0.00 0.00 0.00 58 1010.0
20260505024549 22 214 8.0 17.7 0.00 0.00 0.00 57 1009.8
20260505023051 22 181 9.7 19.3 0.00 0.00 0.00 55 1009.7
20260505021544 22 210 8.0 17.7 0.00 0.00 0.00 53 1009.8
20260505020042 23 245 9.7 24.1 0.00 0.00 0.00 52 1009.7
20260505014542 23 256 12.9 22.5 0.00 0.00 0.00 49 1009.7
20260505013101 23 220 12.9 19.3 0.00 0.00 0.00 47 1009.6
20260505011550 24 240 8.0 19.3 0.00 0.00 0.00 43 1009.7
20260505010055 24 244 12.9 20.9 0.00 0.00 0.00 41 1009.8
20260505004542 25 219 9.7 17.7 0.00 0.00 0.00 39 1009.8
20260505003047 25 230 9.7 17.7 0.00 0.00 0.00 42 1009.7
20260505001548 25 230 9.7 19.3 0.00 0.00 0.00 43 1009.7
20260505000057 25 207 8.0 20.9 0.00 0.00 0.00 42 1009.7
20260504234545 25 186 8.0 17.7 0.00 0.00 0.00 41 1009.8
20260504233044 25 217 11.3 17.7 0.00 0.00 0.00 42 1009.8
20260504231542 25 245 9.7 20.9 0.00 0.00 0.00 41 1009.7
20260504230051 25 180 11.3 19.3 0.00 0.00 0.00 42 1009.9
20260504224546 25 102 6.4 19.3 0.00 0.00 0.00 40 1010.1
20260504223047 25 244 6.4 19.3 0.00 0.00 0.00 38 1010.2
20260504221541 25 234 4.8 20.9 0.00 0.00 0.00 37 1010.2
20260504220048 25 201 9.7 17.7 0.00 0.00 0.00 39 1010.4
20260504214557 24 220 8.0 17.7 0.00 0.00 0.00 39 1010.7
20260504213043 23 226 9.7 22.5 0.00 0.00 0.00 42 1010.7
20260504211541 24 205 8.0 17.7 0.00 0.00 0.00 43 1010.7
20260504210042 23 242 9.7 19.3 0.00 0.00 0.00 43 1010.6
20260504204551 23 215 8.0 22.5 0.00 0.00 0.00 44 1010.7
20260504203047 23 205 6.4 14.5 0.00 0.00 0.00 45 1010.6
20260504201557 24 240 4.8 16.1 0.00 0.00 0.00 46 1010.8
20260504200049 23 222 8.0 17.7 0.00 0.00 0.00 45 1010.9
20260504194548 23 281 6.4 16.1 0.00 0.00 0.00 44 1011.0
20260504193046 22 279 8.0 16.1 0.00 0.00 0.00 46 1011.0
20260504191556 22 309 9.7 16.1 0.00 0.00 0.00 45 1011.2
20260504190045 22 197 4.8 12.9 0.00 0.00 0.00 48 1011.2
20260504184554 21 215 8.0 20.9 0.00 0.00 0.00 49 1011.4
20260504183042 21 211 4.8 14.5 0.00 0.00 0.00 53 1011.4
20260504181548 21 242 3.2 12.9 0.00 0.00 0.00 52 1011.5
20260504180052 20 191 3.2 14.5 0.00 0.00 0.00 53 1011.4
20260504174544 20 68 4.8 14.5 0.00 0.00 0.00 54 1011.3
20260504173050 20 149 3.2 12.9 0.00 0.00 0.00 55 1011.4
20260504171551 19 172 4.8 14.5 0.00 0.00 0.00 56 1011.4